This demonstration page uses our WeatherBlox Daily Observations layout. Learn more.

Hourly Observations for December 7, 2017

Temp ( °F °C ) Dew Point ( °F °C ) Humidity (%) Winds ( mph kmh ) Pressure ( in mb ) Visibility ( mi km ) Precip ( " mm )
12:54 am 00:54 Clear 19 -7.2 10 -12.2 68 68 NW 15 24 30.5 1033 10 16.0934 0 0
1:54 am 01:54 Clear 18 -7.8 10 -12.2 71 71 NNW 13 20 30.5 1033 10 16.0934 0 0
2:54 am 02:54 Clear 18 -7.8 10 -12.2 71 71 NNW 17 28 30.51 1033 10 16.0934 0 0
3:54 am 03:54 Clear 17 -8.3 9 -12.8 70 70 NW 13 20 30.52 1033 10 16.0934 0 0
4:54 am 04:54 Clear 16 -8.9 8 -13.3 71 71 NW 14 22 30.53 1034 10 16.0934 0 0
5:54 am 05:54 Clear 15 -9.4 7 -13.9 70 70 NW 9 15 30.53 1034 10 16.0934 0 0
6:54 am 06:54 Clear 14 -10 7 -13.9 73 73 NW 9 15 30.53 1034 10 16.0934 0 0
7:54 am 07:54 Sunny 13 -10.6 6 -14.4 74 74 WNW 7 11 30.54 1034 10 16.0934 0 0
8:54 am 08:54 Sunny 16 -8.9 7 -13.9 67 67 NW 8 13 30.56 1035 10 16.0934 0 0
9:54 am 09:54 Sunny 18 -7.8 6 -14.4 59 59 NW 10 17 30.56 1035 10 16.0934 0 0
10:54 am 10:54 Sunny 21 -6.1 6 -14.4 52 52 NW 9 15 30.54 1034 10 16.0934 0 0
11:54 am 11:54 Sunny 24 -4.4 6 -14.4 46 46 NW 8 13 30.49 1033 10 16.0934 0 0
12:54 pm 12:54 Sunny 27 -2.8 5 -15 39 39 NW 10 17 30.45 1031 10 16.0934 0 0
1:54 pm 13:54 Sunny 27 -2.8 7 -13.9 43 43 WNW 12 19 30.42 1030 10 16.0934 0 0
2:54 pm 14:54 Sunny 28 -2.2 5 -15 37 37 W 12 19 30.39 1029 10 16.0934 0 0
3:54 pm 15:54 Sunny 29 -1.7 4 -15.6 34 34 W 10 17 30.36 1028 10 16.0934 0 0
4:54 pm 16:54 Sunny 27 -2.8 2 -16.7 34 34 WSW 9 15 30.33 1027 10 16.0934 0 0
5:54 pm 17:54 Clear 25 -3.9 2 -16.7 37 37 W 5 7 30.34 1027 10 16.0934 0 0
6:54 pm 18:54 Clear 21 -6.1 3 -16.1 45 45 SSW 6 9 30.3 1026 10 16.0934 0 0
7:54 pm 19:54 Clear 21 -6.1 4 -15.6 47 47 WSW 6 9 30.28 1026 10 16.0934 0 0
8:54 pm 20:54 Clear 19 -7.2 5 -15 54 54 S 5 7 30.25 1024 10 16.0934 0 0
9:54 pm 21:54 Clear 17 -8.3 7 -13.9 64 64 S 6 9 30.22 1023 10 16.0934 0 0
10:54 pm 22:54 Clear 17 -8.3 8 -13.3 68 68 S 7 11 30.2 1023 10 16.0934 0 0
11:54 pm 23:54 Clear 18 -7.8 9 -12.8 68 68 S 6 9 30.16 1021 10 16.0934 0 0

Powered by AerisWeather